This is the latest recevied weather packets stored in our database for station/object SQ9SMC-13. If no packets are shown the sender has not sent any weather packets the latest 10 day(s).
| Time | Temp. | Humidity | Pressure | Rain* | Wind** | Luminosity | Snow |
|---|---|---|---|---|---|---|---|
| 1777909202 | 25° C | 36% | 1013.9 hPa | 0 mm | - | 179 W/m² | - |
| 1777908903 | 25° C | 35% | 1014.1 hPa | 0 mm | - | 136 W/m² | - |
| 1777907103 | 25.56° C | 34% | 1014.3 hPa | 0 mm | - | 171 W/m² | - |
| 1777905604 | 26.11° C | 33% | 1014.5 hPa | 0 mm | - | 262 W/m² | - |
| 1777905303 | 25.56° C | 32% | 1014.5 hPa | 0 mm | - | 330 W/m² | - |
| 1777901705 | 25.56° C | 31% | 1015 hPa | 0 mm | - | 452 W/m² | - |
| 1777901406 | 25.56° C | 32% | 1015 hPa | 0 mm | - | 445 W/m² | - |
| 1777901103 | 25.56° C | 31% | 1014.9 hPa | 0 mm | - | 467 W/m² | - |
| 1777900803 | 25.56° C | 32% | 1014.9 hPa | 0 mm | - | 403 W/m² | - |
| 1777900503 | 25° C | 33% | 1015.1 hPa | 0 mm | - | 307 W/m² | - |
| 1777898403 | 25.56° C | 31% | 1015.3 hPa | 0 mm | - | 590 W/m² | - |
| 1777898103 | 26.11° C | 29% | 1015.2 hPa | 0 mm | - | 607 W/m² | - |
| 1777897804 | 26.11° C | 30% | 1015.4 hPa | 0 mm | - | 552 W/m² | - |
| 1777897505 | 26.11° C | 30% | 1015.4 hPa | 0 mm | - | 568 W/m² | - |
| 1777897204 | 26.11° C | 29% | 1015.6 hPa | 0 mm | - | 618 W/m² | - |
| 1777896903 | 25.56° C | 32% | 1015.3 hPa | 0 mm | - | 626 W/m² | - |
| 1777896602 | 26.11° C | 31% | 1015.5 hPa | 0 mm | - | 636 W/m² | - |
| 1777896003 | 26.11° C | 31% | 1015.6 hPa | 0 mm | - | 604 W/m² | - |
| 1777895702 | 26.67° C | 31% | 1015.6 hPa | 0 mm | - | 624 W/m² | - |
| 1777894203 | 25° C | 33% | 1015.7 hPa | 0 mm | - | 578 W/m² | - |
| 1777893905 | 25° C | 33% | 1015.8 hPa | 0 mm | - | 559 W/m² | - |
| 1777893604 | 25.56° C | 33% | 1015.7 hPa | 0 mm | - | 549 W/m² | - |
| 1777893303 | 25° C | 33% | 1015.9 hPa | 0 mm | - | 539 W/m² | - |
| 1777893003 | 25.56° C | 33% | 1015.9 hPa | 0 mm | - | 595 W/m² | - |
| 1777892703 | 25° C | 33% | 1016 hPa | 0 mm | - | 610 W/m² | - |
* Rain latest hour (hover to see other rain measurements)
** Current wind speed in m/s (hover to see current wind gust speed)